Air Resources Laboratory banner image
Air Resources Laboratory web site National Oceanic and Atmospheric Administration (NOAA)

ga roundup


Office: FFC

ASUS42 KFFC 201503
RWRGA
WEATHER ROUNDUP FOR GEORGIA
NATIONAL WEATHER SERVICE PEACHTREE CITY GA
1000 AM EST TUE NOV 20 2018

NOTE: "FAIR" INDICATES FEW OR NO CLOUDS BELOW 12,000 FEET WITH NO
SIGNIFICANT WEATHER AND/OR OBSTRUCTIONS TO VISIBILITY.

* = USE WITH CAUTION. THE STATIONS MARKED WITH AN ASTERISK MAY NOT
REPORT WEATHER SUCH AS PRECIPITATION, FOG, OR THUNDER AND ARE NOT
QUALITY CONTROLLED BY NWS.

THE REMARK "TC" DENOTES TEMPERATURE READING IN DEGREES CELSIUS.

GAZ001>058-201600-
NORTH GEORGIA

CITY           SKY/WX    TMP DP  RH WIND       PRES   REMARKS
ATLANTA        PTSUNNY   49  43  80 NW12      30.15R
ATHENS         FAIR      55  44  66 W8G20     30.10R
CHAMBLEE       FAIR      50  38  63 W16       30.15R
PEACHTREE CITY CLOUDY    50  44  80 NW13      30.17R
ROME           PTSUNNY   50  36  58 N6        30.19R
WEST ATLANTA   CLOUDY    49  41  74 NW10      30.16R
GAINESVILLE    FAIR      51  42  71 W10       30.12S
CARTERSVILLE   FAIR      50  36  58 N6        30.19R


CITY           SKY/WX    TMP DP  RH WIND       PRES   REMARKS
DALTON*        CLOUDY    50  39  66 NW10      30.20R
LAWRENCEVILLE* FAIR      51  39  63 W12G20    30.13S
MARIETTA       MOSUNNY   49  38  64 NW14      30.15R
KENNESAW*      FAIR      48  37  65 NW8G18    30.17R
CANTON*        FAIR      50  34  53 W12G22    30.15S
BLAIRSVILLE*   CLOUDY    44  34  66 N7        30.15R
$$

GAZ059>098-102>109-201600-
CENTRAL GEORGIA

CITY           SKY/WX    TMP DP  RH WIND       PRES   REMARKS
AUGUSTA-BUSH   LGT RAIN  57  54  89 SW3       30.10R
AUGUSTA-DANIEL CLOUDY    58  51  78 W6        30.09S
COLUMBUS       LGT RAIN  57  53  86 NW7       30.15R
MACON          LGT RAIN  58  54  86 W8        30.13S
ROBINS AFB     SUNNY     59  55  84 W7        30.12S


CITY           SKY/WX    TMP DP  RH WIND       PRES   REMARKS
LAGRANGE*      CLOUDY    55  51  87 N8        30.17R
SYLVANIA*      PTSUNNY   59  55  85 NW6       30.11F
MILLEDGEVILLE* CLOUDY    57  54  88 W6        30.12R
$$

GAZ099>101-110>166-201600-
SOUTH GEORGIA

CITY           SKY/WX    TMP DP  RH WIND       PRES   REMARKS
SAVANNAH       CLOUDY    60  54  80 W5        30.12R
VALDOSTA       FAIR      60  55  83 CALM      30.14R
ALMA           FAIR      61  56  83 NW3       30.12S
ST SIMONS      PTSUNNY   63  59  87 SW5       30.13R
FT STEWART     CLOUDY    61  55  78 SW3       30.10S
ALBANY         PTSUNNY   58  52  80 CALM      30.16S
HUNTER AFB     FAIR      61  59  93 W6        30.09S
MOODY AFB      FAIR      61  54  79 SW3       30.13R
BRUNSWICK      PTSUNNY   61  59  94 W5        30.14R


CITY           SKY/WX    TMP DP  RH WIND       PRES   REMARKS
BAINBRIDGE*      N/A     59  52  77 CALM      30.16R
MOULTRIE*      FAIR      57  52  82 CALM      30.15R
VIDALIA*       CLOUDY    61  50  67 CALM      30.13S
WAYCROSS*      FAIR      62  59  90 W3        30.13S
$$


ASUS42 KFFC 201510
RWRGA
WEATHER ROUNDUP FOR GEORGIA
NATIONAL WEATHER SERVICE PEACHTREE CITY GA
1000 AM EST TUE NOV 20 2018

NOTE: "FAIR" INDICATES FEW OR NO CLOUDS BELOW 12,000 FEET WITH NO
SIGNIFICANT WEATHER AND/OR OBSTRUCTIONS TO VISIBILITY.

* = USE WITH CAUTION. THE STATIONS MARKED WITH AN ASTERISK MAY NOT
REPORT WEATHER SUCH AS PRECIPITATION, FOG, OR THUNDER AND ARE NOT
QUALITY CONTROLLED BY NWS.

THE REMARK "TC" DENOTES TEMPERATURE READING IN DEGREES CELSIUS.

GAZ001>058-201600-
NORTH GEORGIA

CITY           SKY/WX    TMP DP  RH WIND       PRES   REMARKS
ATLANTA        PTSUNNY   49  43  80 NW12      30.15R
ATHENS         FAIR      55  44  66 W8G20     30.10R
CHAMBLEE       FAIR      50  38  63 W16       30.15R
PEACHTREE CITY CLOUDY    50  44  80 NW13      30.17R
ROME           PTSUNNY   50  36  58 N6        30.19R
WEST ATLANTA   CLOUDY    49  41  74 NW10      30.16R
GAINESVILLE    FAIR      51  42  71 W10       30.12S
CARTERSVILLE   FAIR      50  36  58 N6        30.19R


CITY           SKY/WX    TMP DP  RH WIND       PRES   REMARKS
DALTON*        CLOUDY    50  39  66 NW10      30.20R
LAWRENCEVILLE* FAIR      51  39  63 W12G20    30.13S
MARIETTA       MOSUNNY   49  38  64 NW14      30.15R
KENNESAW*      FAIR      48  37  65 NW8G18    30.17R
CANTON*        FAIR      50  34  53 W12G22    30.15S
BLAIRSVILLE*   CLOUDY    44  34  66 N7        30.15R
$$

GAZ059>098-102>109-201600-
CENTRAL GEORGIA

CITY           SKY/WX    TMP DP  RH WIND       PRES   REMARKS
AUGUSTA-BUSH   LGT RAIN  57  54  89 SW3       30.10R
AUGUSTA-DANIEL CLOUDY    58  51  78 W6        30.09S
COLUMBUS       LGT RAIN  57  53  86 NW7       30.15R
MACON          LGT RAIN  58  54  86 W8        30.13S
ROBINS AFB     SUNNY     59  55  84 W7        30.12S


CITY           SKY/WX    TMP DP  RH WIND       PRES   REMARKS
LAGRANGE*      CLOUDY    55  51  87 N8        30.17R
SYLVANIA*      PTSUNNY   59  55  85 NW6       30.11F
MILLEDGEVILLE* CLOUDY    57  54  88 W6        30.12R
$$

GAZ099>101-110>166-201600-
SOUTH GEORGIA

CITY           SKY/WX    TMP DP  RH WIND       PRES   REMARKS
SAVANNAH       CLOUDY    60  54  80 W5        30.12R
VALDOSTA       FAIR      60  55  83 CALM      30.14R
ALMA           FAIR      61  56  83 NW3       30.12S
ST SIMONS      PTSUNNY   63  59  87 SW5       30.13R
FT STEWART     CLOUDY    61  55  78 SW3       30.10S
ALBANY         PTSUNNY   58  52  80 CALM      30.16S
HUNTER AFB     FAIR      61  59  93 W6        30.09S
MOODY AFB      FAIR      61  54  79 SW3       30.13R
BRUNSWICK      PTSUNNY   61  59  94 W5        30.14R


CITY           SKY/WX    TMP DP  RH WIND       PRES   REMARKS
BAINBRIDGE*      N/A     59  52  77 CALM      30.16R
MOULTRIE*      FAIR      57  52  82 CALM      30.15R
VIDALIA*       CLOUDY    61  50  67 CALM      30.13S
WAYCROSS*      FAIR      62  59  90 W3        30.13S
$$


ASUS62 KFFC 201519
RTPGA

Max/min Temperature And Rainfall Table For Georgia
National Weather Service Peachtree City GA
1015 AM EST Tue Nov 20 2018

:Highest temperature yesterday, lowest temperature since midnight
:Precipitation for 24 hours ending at 7 AM local time
:
.BR ATL 1120 ES DH00/TAIRZX/DH07/TAIRZP/PPDRZZ
:
: Station        ID       High    Low  24 HR Pcpn
:
:Albany         :ABY       73 /   53 /    T
:Alma           :AMG       69 /   55 / 0.00
:Athens         :AHN       66 /   54 / 0.00
:Atlanta        :ATL       69 /   52 / 0.01
:Augusta        :AGS       71 /   50 / 0.01
:Brunswick      :SSI       71 /   57 /    T
:Cartersville   :VPC       68 /   49 /    T
:Columbus       :CSG       71 /   55 /    T
:Gainesville    :GVL       64 /   51 / 0.00
:Lawrenceville  :LZU       66 /   53 / 0.00
:Macon          :MCN       70 /   50 / 0.00
:Marietta       :MGE       67 /   50 /    T
:NE Atlanta     :PDK       65 /   52 / 0.00
:Peachtree City :FFC       69 /   51 /    T
:Rome           :RMG       68 /   49 /    T
:Savannah       :SAV       74 /   54 /    T
:Valdosta       :VLD       69 /   54 / 0.00
:West Atlanta   :FTY       66 /   52 / 0.00
.END
:
: M indicates missing data.  Temperatures for Marietta are based on
: hourly temperatures.
:
: Georgia Supplemental Temperature and Precipitation Table
:
: High and low temperature and precipitation past 24 hours
: ending 7 AM local time
:
.BR ATL 1120 E DH07/TAIRZX/TAIRZN/TAIRZZ/PPDRZZ
:
:                                       7AM   24 HR
: Station         SID     Max    Min    Temp  Precip
: --------------  -----  -----  -----  -----  ------
: Allatoona Dam  :CVLG1     67/    41/    45/   0.00
: Alto           :ATOG1     66/    37/    53/   0.00
: Carrollton     :CRLG1     67/    36/    53/   0.00
: Cartersville   :CRTG1     77/    28/    46/   0.00
: Chatsworth     :CWTG1     65/    37/    43/   0.00
: Cleveland      :CLVG1     66/    33/    51/   0.00
: Columbus       :CLMG1     69/    42/    53/   0.00
: Cumming        :CUMG1     67/    45/    47/   0.00
: Dahlonega      :DAHG1      M/     M/     M/   0.01
: Dallas         :DALG1     69/    40/    48/   0.02
: Danielsville   :DANG1     64/    40/    53/   0.00
: Gainesville    :GVLG1     65/    39/    52/   0.00
: Hawkinsville   :HAWG1     68/    49/    54/    T
: Jasper         :JASG1     63/    41/    44/   0.00
: Jonesboro      :JNSG1     65/    39/    51/   0.03
: McDonough      :MCDG1      M/     M/     M/   0.02
: Sandersville   :SDRG1     67/    50/    52/   0.00
: Sautee         :STEG1     63/    37/    49/   0.00
: Summerville    :SMRG1     64/    36/    44/   0.01
: Washington     :WSHG1     64/    48/    53/   0.00
: Winterville    :WING1     64/    41/    53/   0.00
.END
:
.BR ATL 1120 E DH07/PPDRZZ
:
: Stations reporting precipitation only
:
: Station         SID    Precip
: --------------  -----  ------
: Adairsville    :ADAG1    0.00
: Americus       :AMRG1    0.00
: Doraville      :DRAG1    0.00
: Woodbury       :WDBG1    0.00
.END


These data are preliminary and have not undergone final quality
control by the National Climatic Data Center /NCDC/.  Therefore,
these data are subject to revision.  Final and certified climate data
can be accessed at www.ncdc.noaa.gov.


$$



Office: CHS ASUS42 KCHS 201512 RWRCHS Regional Weather Roundup National Weather Service Charleston SC 1000 AM EST TUE NOV 20 2018 NOTE: "fair" indicates few or no clouds below 12,000 feet with no significant weather and/or obstructions to visibility. Not all stations are quality controlled. Use data with caution, especially dewpoint observations. SCZ027-030-031-034>040-042>050-201600- ...Southeast South Carolina... CITY SKY/WX TMP DP RH WIND PRES REMARKS N Charleston PTSUNNY 60 53 77 W7 30.09R Waterfront Prk N/A 60 53 77 W5 29.94R Mount Pleasant NOT AVBL Johns Island NOT AVBL Pinopolis N/A 57 54 88 SW6 30.00R Moncks Corner NOT AVBL Summerville NOT AVBL Beaufort MCAS NOT AVBL Beaufort Arpt NOT AVBL Hilton Head Is CLOUDY 61 54 77 SW5 30.12R Walterboro NOT AVBL Allendale NOT AVBL ...Southern Midlands and Pee Dee... CITY SKY/WX TMP DP RH WIND PRES REMARKS Georgetown NOT AVBL Kingstree NOT AVBL Orangeburg CLOUDY 57 51 80 W6 30.09R Barnwell NOT AVBL Aiken NOT AVBL Manning NOT AVBL Columbia LGT RAIN 57 54 89 SW7 30.06R Sumter CLOUDY 58 51 75 SW10 30.05S Florence CLOUDY 60 52 74 W7 30.04R Myrtle Beach CLOUDY 59 53 80 W7 30.07R N Myrtle Beach CLOUDY 58 54 86 SW7 30.05R $$ GAZ063-065-086>088-099>101-113>116-118-119-134>141-150-201600- ...Southeast Georgia... CITY SKY/WX TMP DP RH WIND PRES REMARKS Savannah Arpt CLOUDY 60 54 80 W5 30.12R Hunter AAF FAIR 61 59 93 W6 30.09S Fort Stewart CLOUDY 61 55 78 SW3 30.10S Statesboro CLOUDY 59 53 81 NW5 30.11S Sylvania PTSUNNY 59 55 85 NW6 30.11F Claxton PTSUNNY 62 55 80 W3 30.12S ...CSRA, Central and far Southeast Georgia... CITY SKY/WX TMP DP RH WIND PRES REMARKS Thomson CLOUDY 56 52 87 W5 30.15S Augusta-Bush LGT RAIN 57 54 89 SW3 30.10R Augusta-Daniel CLOUDY 58 51 78 W6 30.09S Swainsboro NOT AVBL Vidalia CLOUDY 61 50 67 CALM 30.13S Eastman CLOUDY 57 52 82 CALM 30.16S Hazlehurst FAIR 60 51 72 CALM 30.12S Alma FAIR 61 56 83 NW3 30.12S Waycross FAIR 62 59 90 W3 30.13S Jesup FAIR 64 55 72 CALM 30.13F Baxley CLOUDY 55 55 100 CALM 30.13S Brunswick PTSUNNY 61 59 94 W5 30.14R Saint Simons PTSUNNY 63 59 87 SW5 30.13R $$ SCZ027-028-034-036>038-045-046-048>050-GAZ119-141-201600- ...Lake and Supplemental Coastal Observations... STATION/POSITION TIME TEMP WIND PRES WAVE SWELL AIR SEA DIR/SP/G HT/PER HT/PER/DIR (UTC) (F) (DEG/KT/KT) (MB) (FT/S) (FT/S/D) Winyah Bay 1345 58 260/ 5 1018.0 Lake Murray 1420 59 260/ 12/ 15 1017.3 ACE Basin NERRS 1345 58 280/ 1 1019.0 Fort Pulaski 1442 61 62 290/ 9/ 10 1020.3R Sapelo Island 1400 61 290/ 4 1019.0 $$ ANZ835-935-AMZ111-154-330-350-352-354-370-450-454-472-201600- ...C-MAN and Buoy Observations... STATION/POSITION TIME TEMP WIND PRES WAVE SWELL AIR SEA DIR/SP/G HT/PER HT/PER/DIR (UTC) (F) (DEG/KT/KT) (MB) (FT/S) (FT/S/D) Buoy 41004 1450 69 78 290/ 14/ 17 1018.9R 3/ 9 2/130/ 9 Buoy 41008 1450 64 68 270/ 8/ 10 1019.8R 2/10 2/ 90/10 Folly Beach CMAN 1400 59 270/ 4/ 6 1019.1R Capers Nearshore 1408 61 62 300/ 8/ 12 1017.8R STATION/POSITION TIME TEMP WIND PRES WAVE SWELL AIR SEA DIR/SP/G HT/PER HT/PER/DIR (UTC) (F) (DEG/KT/KT) (MB) (FT/S) (FT/S/D) 5E St. Marys GA 1500 66 N/A 2/ 8 Frying Pan Buoy 1450 68 72 260/ 17/ 21 1017.9S 4/ 5 2/110/ 8 Buoy 41025 1450 68 79 260/ 19/ 23 1015.8S 4/ 5 2/110/ 9 Cape Lookout NC 1400 260/ 12/ 15 1016.4R Buoy 41002 1450 76 1017.8R 5/ 8 3/100/ 8 Buoy 41010 1450 78 81 100/ 4/ 6 1019.8R St Augustine FL 1500 65 69 320/ 5/ 6 1020.1R $$ ASUS42 KCHS 201527 RWRCHS Regional Weather Roundup National Weather Service Charleston SC 1000 AM EST TUE NOV 20 2018 NOTE: "fair" indicates few or no clouds below 12,000 feet with no significant weather and/or obstructions to visibility. Not all stations are quality controlled. Use data with caution, especially dewpoint observations. SCZ027-030-031-034>040-042>050-201600- ...Southeast South Carolina... CITY SKY/WX TMP DP RH WIND PRES REMARKS N Charleston PTSUNNY 60 53 77 W7 30.09R Waterfront Prk N/A 60 53 77 W5 29.94R Mount Pleasant NOT AVBL Johns Island NOT AVBL Pinopolis N/A 57 54 88 SW6 30.00R Moncks Corner NOT AVBL Summerville NOT AVBL Beaufort MCAS CLOUDY 61 54 77 W6 30.10S Beaufort Arpt NOT AVBL Hilton Head Is CLOUDY 61 54 77 SW5 30.12R Walterboro NOT AVBL Allendale NOT AVBL ...Southern Midlands and Pee Dee... CITY SKY/WX TMP DP RH WIND PRES REMARKS Georgetown NOT AVBL Kingstree NOT AVBL Orangeburg CLOUDY 57 51 80 W6 30.09R Barnwell NOT AVBL Aiken NOT AVBL Manning NOT AVBL Columbia LGT RAIN 57 54 89 SW7 30.06R Sumter CLOUDY 58 51 75 SW10 30.05S Florence CLOUDY 60 52 74 W7 30.04R Myrtle Beach CLOUDY 59 53 80 W7 30.07R N Myrtle Beach CLOUDY 58 54 86 SW7 30.05R $$ GAZ063-065-086>088-099>101-113>116-118-119-134>141-150-201600- ...Southeast Georgia... CITY SKY/WX TMP DP RH WIND PRES REMARKS Savannah Arpt CLOUDY 60 54 80 W5 30.12R Hunter AAF FAIR 61 59 93 W6 30.09S Fort Stewart CLOUDY 61 55 78 SW3 30.10S Statesboro CLOUDY 60 53 79 NW6 30.12R Sylvania CLOUDY 61 55 82 NW6 30.12R Claxton PTSUNNY 63 55 76 CALM 30.12S HAZE ...CSRA, Central and far Southeast Georgia... CITY SKY/WX TMP DP RH WIND PRES REMARKS Thomson CLOUDY 57 52 84 NW7 30.15R Augusta-Bush LGT RAIN 57 54 89 SW3 30.10R Augusta-Daniel CLOUDY 58 51 78 W6 30.09S Swainsboro NOT AVBL Vidalia PTSUNNY 61 50 67 CALM 30.13S Eastman PTSUNNY 58 52 80 CALM 30.15F Hazlehurst FAIR 61 51 70 CALM 30.12F Alma FAIR 61 56 83 NW3 30.12S Waycross FAIR 63 57 81 W5 30.13S Jesup FAIR 64 55 72 CALM 30.12F Baxley PTSUNNY 59 59 100 CALM 30.12S Brunswick FAIR 61 59 94 W5 30.13S Saint Simons PTSUNNY 63 59 87 SW5 30.13R $$ SCZ027-028-034-036>038-045-046-048>050-GAZ119-141-201600- ...Lake and Supplemental Coastal Observations... STATION/POSITION TIME TEMP WIND PRES WAVE SWELL AIR SEA DIR/SP/G HT/PER HT/PER/DIR (UTC) (F) (DEG/KT/KT) (MB) (FT/S) (FT/S/D) Winyah Bay 1445 58 260/ 5 1019.0R Lake Murray 1420 59 260/ 12/ 15 1017.3 ACE Basin NERRS 1445 59 260/ 2 1020.0R Fort Pulaski 1500 61 62 290/ 8/ 9 1020.2 Sapelo Island 1500 62 290/ 3 1020.0 $$ ANZ835-935-AMZ111-154-330-350-352-354-370-450-454-472-201600- ...C-MAN and Buoy Observations... STATION/POSITION TIME TEMP WIND PRES WAVE SWELL AIR SEA DIR/SP/G HT/PER HT/PER/DIR (UTC) (F) (DEG/KT/KT) (MB) (FT/S) (FT/S/D) Buoy 41004 1510 78 280/ 12/ 16 1019.0 Buoy 41008 1450 64 68 270/ 8/ 10 1019.8R 2/10 2/ 90/10 Folly Beach CMAN 1500 60 260/ 5/ 7 1019.8R Capers Nearshore 1408 61 62 300/ 8/ 12 1017.8R STATION/POSITION TIME TEMP WIND PRES WAVE SWELL AIR SEA DIR/SP/G HT/PER HT/PER/DIR (UTC) (F) (DEG/KT/KT) (MB) (FT/S) (FT/S/D) 5E St. Marys GA 1500 66 N/A 2/ 8 Frying Pan Buoy 1510 68 72 260/ 17/ 21 1017.9 Buoy 41025 1510 68 79 260/ 21/ 27 1015.9 Cape Lookout NC 1500 260/ 13/ 16 1016.6R Buoy 41002 1510 76 N/A Buoy 41010 1510 77 81 350/ 4/ 6 1019.7 St Augustine FL 1500 65 69 320/ 5/ 6 1020.1R $$